H1 CPF 2 NER 2024 1 3 9 003 01 glonass132 H2 1401201 9132 39620 2024 1 3 0 0 0 2024 1 6 23 45 0 900 1 1 0 0 0 1 H9 10 0 60312 0.00000 0 -15088210.801 -14179845.296 -14839838.622 10 0 60312 900.00000 0 -16065851.413 -15552100.694 -12205281.796 10 0 60312 1800.00000 0 -16955637.214 -16564840.084 -9332697.056 10 0 60312 2700.00000 0 -17696786.233 -17218200.949 -6278112.382 10 0 60312 3600.00000 0 -18231700.930 -17525602.140 -3101110.608 10 0 60312 4500.00000 0 -18508540.791 -17512952.364 136348.615 10 0 60312 5400.00000 0 -18483565.653 -17217341.532 3371153.447 10 0 60312 6300.00000 0 -18123149.235 -16685272.384 6540285.374 10 0 60312 7200.00000 0 -17405376.730 -15970509.502 9582059.611 10 0 60312 8100.00000 0 -16321158.508 -15131639.007 12437334.762 10 0 60312 9000.00000 0 -14874812.945 -14229444.220 15050667.165 10 0 60312 9900.00000 0 -13084094.319 -13324209.831 17371386.896 10 0 60312 10800.00000 0 -10979665.403 -12473069.447 19354574.645 10 0 60312 11700.00000 0 -8604037.814 -11727508.725 20961921.150 10 0 60312 12600.00000 0 -6010025.401 -11131128.899 22162453.690 10 0 60312 13500.00000 0 -3258775.897 -10717763.774 22933117.158 10 0 60312 14400.00000 0 -417463.109 -10510027.812 23259200.276 10 0 60312 15300.00000 0 2443264.580 -10518354.443 23134600.570 10 0 60312 16200.00000 0 5251974.287 -10740563.076 22561924.716 10 0 60312 17100.00000 0 7939167.041 -11161971.248 21552423.780 10 0 60312 18000.00000 0 10439913.624 -11756045.875 20125765.642 10 0 60312 18900.00000 0 12696300.731 -12485565.434 18309649.563 10 0 60312 19800.00000 0 14659588.298 -13304244.106 16139270.434 10 0 60312 20700.00000 0 16291990.725 -14158750.009 13656642.664 10 0 60312 21600.00000 0 17568010.048 -14991033.576 10909796.039 10 0 60312 22500.00000 0 18475267.330 -15740869.369 7951858.007 10 0 60312 23400.00000 0 19014798.907 -16348505.729 4840038.991 10 0 60312 24300.00000 0 19200805.914 -16757311.993 1634539.052 10 0 60312 25200.00000 0 19059867.906 -16916312.850 -1602604.121 10 0 60312 26100.00000 0 18629653.359 -16782503.647 -4808704.669 10 0 60312 27000.00000 0 17957180.708 -16322849.226 -7921633.289 10 0 60312 27900.00000 0 17096702.202 -15515881.540 -10881014.612 10 0 60312 28800.00000 0 16107298.759 -14352827.645 -13629394.388 10 0 60312 29700.00000 0 15050286.206 -12838218.912 -16113354.081 10 0 60312 30600.00000 0 13986541.426 -10989953.624 -18284551.279 10 0 60312 31500.00000 0 12973860.605 -8838807.837 -20100665.459 10 0 60312 32400.00000 0 12064460.757 -6427412.272 -21526230.399 10 0 60312 33300.00000 0 11302729.991 -3808735.387 -22533336.461 10 0 60312 34200.00000 0 10723321.921 -1044133.563 -23102188.339 10 0 60312 35100.00000 0 10349675.415 1798952.328 -23221506.493 10 0 60312 36000.00000 0 10193023.191 4649559.537 -22888763.379 10 0 60312 36900.00000 0 10251932.384 7435919.465 -22110248.693 10 0 60312 37800.00000 0 10512397.688 10088214.400 -20900961.135 10 0 60312 38700.00000 0 10948484.326 12541260.072 -19284327.614 10 0 60312 39600.00000 0 11523494.523 14737001.619 -17291754.346 10 0 60312 40500.00000 0 12191608.645 16626718.113 -14962017.834 10 0 60312 41400.00000 0 12899931.532 18172842.716 -12340507.194 10 0 60312 42300.00000 0 13590856.864 19350321.654 -9478332.656 10 0 60312 43200.00000 0 14204648.354 20147454.762 -6431318.153 10 0 60312 44100.00000 0 14682126.962 20566182.521 -3258898.619 10 0 60312 45000.00000 0 14967348.556 20621808.315 -22944.911 10 0 60312 45900.00000 0 15010156.792 20342168.957 3213459.054 10 0 60312 46800.00000 0 14768501.454 19766290.367 6387261.375 10 0 60312 47700.00000 0 14210422.811 18942587.293 9436683.381 10 0 60312 48600.00000 0 13315617.195 17926685.474 12302431.391 10 0 60312 49500.00000 0 12076517.323 16778960.367 14928854.340 10 0 60312 50400.00000 0 10498841.907 15561898.214 17265024.180 10 0 60312 51300.00000 0 8601591.945 14337392.088 19265718.120 10 0 60312 52200.00000 0 6416494.579 13164087.469 20892284.271 10 0 60312 53100.00000 0 3986918.638 12094888.976 22113375.019 10 0 60312 54000.00000 0 1366307.891 11174732.235 22905535.525 10 0 60312 54900.00000 0 -1383802.294 10438712.972 23253637.714 10 0 60312 55800.00000 0 -4196102.335 9910649.924 23151153.260 10 0 60312 56700.00000 0 -7000064.146 9602139.659 22600262.019 10 0 60312 57600.00000 0 -9724630.162 9512140.782 21611795.292 10 0 60312 58500.00000 0 -12300925.690 9627103.043 20205016.092 10 0 60312 59400.00000 0 -14664884.025 9921634.466 18407241.272 10 0 60312 60300.00000 0 -16759677.588 10359677.592 16253312.886 10 0 60312 61200.00000 0 -18537856.328 10896145.150 13784928.701 10 0 60312 62100.00000 0 -19963106.578 11478946.706 11049844.005 10 0 60312 63000.00000 0 -21011558.968 12051321.827 8100959.120 10 0 60312 63900.00000 0 -21672592.197 12554382.573 4995309.072 10 0 60312 64800.00000 0 -21949100.040 12929759.431 1792973.688 10 0 60312 65700.00000 0 -21857210.752 13122240.217 -1444072.018 10 0 60312 66600.00000 0 -21425470.572 13082291.456 -4653145.968 10 0 60312 67500.00000 0 -20693525.007 12768356.265 -7772063.538 10 0 60312 68400.00000 0 -19710352.489 12148831.597 -10740335.839 10 0 60312 69300.00000 0 -18532123.618 11203640.692 -13500338.917 10 0 60312 70200.00000 0 -17219774.968 9925333.070 -15998431.450 10 0 60312 71100.00000 0 -15836398.548 8319663.750 -18185999.282 10 0 60312 72000.00000 0 -14444555.966 6405624.965 -20020406.279 10 0 60312 72900.00000 0 -13103629.805 4214926.298 -21465832.708 10 0 60312 73800.00000 0 -11867323.427 1790942.153 -22493984.254 10 0 60312 74700.00000 0 -10781414.595 -812832.056 -23084657.148 10 0 60312 75600.00000 0 -9881857.897 -3534753.020 -23226147.494 10 0 60312 76500.00000 0 -9193316.558 -6307351.591 -22915495.746 10 0 60312 77400.00000 0 -8728186.387 -9059908.357 -22158560.412 10 0 60312 78300.00000 0 -8486153.944 -11721176.210 -20969918.308 10 0 60312 79200.00000 0 -8454308.411 -14222136.645 -19372592.146 10 0 60312 80100.00000 0 -8607803.163 -16498674.453 -17397609.714 10 0 60312 81000.00000 0 -8911039.386 -18494058.497 -15083402.478 10 0 60312 81900.00000 0 -9319321.640 -20161123.976 -12475054.902 10 0 60312 82800.00000 0 -9780914.695 -21464063.937 -9623419.143 10 0 60312 83700.00000 0 -10239413.489 -22379754.272 -6584112.902 10 0 60312 84600.00000 0 -10636324.278 -22898556.317 -3416420.896 10 0 60312 85500.00000 0 -10913745.779 -23024563.558 -182122.779 10 0 60313 0.00000 0 -11017034.736 -22775282.973 3055727.679 10 0 60313 900.00000 0 -10897341.090 -22180765.663 6234048.356 10 0 60313 1800.00000 0 -10513903.645 -21282225.730 9290969.076 10 0 60313 2700.00000 0 -9836008.070 -20130207.370 12167046.575 10 0 60313 3600.00000 0 -8844523.535 -18782379.924 14806425.078 10 0 60313 4500.00000 0 -7532953.014 -17301055.810 17157921.018 10 0 60313 5400.00000 0 -5907953.208 -15750537.440 19176010.563 10 0 60313 6300.00000 0 -3989302.785 -14194405.724 20821701.383 10 0 60313 7200.00000 0 -1809320.993 -12692864.357 22063272.854 10 0 60313 8100.00000 0 588238.340 -11300250.840 22876871.913 10 0 60313 9000.00000 0 3149770.746 -10062817.309 23246954.822 10 0 60313 9900.00000 0 5813816.836 -9016872.340 23166568.137 10 0 60313 10800.00000 0 8513387.079 -8187359.241 22637465.248 10 0 60313 11700.00000 0 11178519.881 -7586927.948 21670057.677 10 0 60313 12600.00000 0 13738967.995 -7215537.027 20283203.217 10 0 60313 13500.00000 0 16126903.465 -7060600.432 18503835.604 10 0 60313 14400.00000 0 18279530.773 -7097671.287 16366443.014 10 0 60313 15300.00000 0 20141501.676 -7291633.077 13912405.160 10 0 60313 16200.00000 0 21667033.329 -7598347.845 11189201.048 10 0 60313 17100.00000 0 22821643.303 -7966692.349 8249501.690 10 0 60313 18000.00000 0 23583430.551 -8340897.141 5150164.152 10 0 60313 18900.00000 0 23943849.786 -8663090.963 1951145.115 10 0 60313 19800.00000 0 23907947.356 -8875944.194 -1285646.266 10 0 60313 20700.00000 0 23494048.643 -8925300.711 -4497535.050 10 0 60313 21600.00000 0 22732909.591 -8762687.669 -7622284.690 10 0 60313 22500.00000 0 21666367.086 -8347597.349 -10599296.097 10 0 60313 23400.00000 0 20345543.701 -7649444.365 -13370778.758 10 0 60313 24300.00000 0 18828681.015 -6649114.594 -15882871.455 10 0 60313 25200.00000 0 17178691.268 -5340038.914 -18086690.876 10 0 60313 26100.00000 0 15460529.179 -3728744.344 -19939287.550 10 0 60313 27000.00000 0 13738493.453 -1834856.855 -21404490.159 10 0 60313 27900.00000 0 12073570.816 309447.127 -22453621.290 10 0 60313 28800.00000 0 10520933.887 2660520.379 -23066069.926 10 0 60313 29700.00000 0 9127698.134 5164813.233 -23229708.642 10 0 60313 30600.00000 0 7931032.492 7760867.416 -22941146.323 10 0 60313 31500.00000 0 6956703.678 10381653.938 -22205810.319 10 0 60313 32400.00000 0 6218116.091 12957158.649 -21037855.192 10 0 60313 33300.00000 0 5715888.385 15417108.156 -19459898.679 10 0 60313 34200.00000 0 5437985.032 17693722.196 -17502588.960 10 0 60313 35100.00000 0 5360397.592 19724376.922 -15204010.895 10 0 60313 36000.00000 0 5448346.709 21454066.824 -12608942.326 10 0 60313 36900.00000 0 5657953.437 22837561.076 -9767975.001 10 0 60313 37800.00000 0 5938308.036 23841162.946 -6736517.692 10 0 60313 38700.00000 0 6233847.119 24443997.657 -3573701.901 10 0 60313 39600.00000 0 6486936.523 24638774.323 -341212.859 10 0 60313 40500.00000 0 6640548.356 24431990.193 2897929.746 10 0 60313 41400.00000 0 6640916.707 23843569.537 6080615.803 10 0 60313 42300.00000 0 6440057.584 22905953.799 9144887.517 10 0 60313 43200.00000 0 5998044.860 21662683.266 12031155.190 10 0 60313 44100.00000 0 5284944.907 20166532.019 14683361.251 10 0 60313 45000.00000 0 4282327.654 18477276.725 17050069.239 10 0 60313 45900.00000 0 2984290.321 16659194.881 19085456.589 10 0 60313 46800.00000 0 1397951.108 14778398.831 20750192.508 10 0 60313 47700.00000 0 -456607.259 12900118.036 22012184.988 10 0 60313 48600.00000 0 -2546941.052 11086043.313 22847183.999 10 0 60313 49500.00000 0 -4829370.287 9391843.240 23239230.996 10 0 60313 50400.00000 0 -7250577.397 7864955.000 23180947.857 10 0 60313 51300.00000 0 -9749613.282 6542739.794 22673661.478 10 0 60313 52200.00000 0 -12260227.784 5451077.386 21727363.095 10 0 60313 53100.00000 0 -14713428.669 4603455.934 20360504.267 10 0 60313 54000.00000 0 -17040164.186 4000592.701 18599634.113 10 0 60313 54900.00000 0 -19174019.493 3630599.418 16478884.963 10 0 60313 55800.00000 0 -21053816.678 3469683.824 14039316.102 10 0 60313 56700.00000 0 -22626012.146 3483356.983 11328127.551 10 0 60313 57600.00000 0 -23846793.216 3628095.320 8397758.080 10 0 60313 58500.00000 0 -24683787.935 3853387.703 5304883.725 10 0 60313 59400.00000 0 -25117317.665 4104081.947 2109334.901 10 0 60313 60300.00000 0 -25141140.580 4322932.709 -1127048.198 10 0 60313 61200.00000 0 -24762654.887 4453244.130 -4341600.803 10 0 60313 62100.00000 0 -24002552.754 4441496.399 -7472037.382 10 0 60313 63000.00000 0 -22893938.473 4239845.711 -10457651.465 10 0 60313 63900.00000 0 -21480946.660 3808391.940 -13240488.640 10 0 60313 64800.00000 0 -19816917.038 3117117.681 -15766470.241 10 0 60313 65700.00000 0 -17962200.934 2147415.598 -17986445.990 10 0 60313 66600.00000 0 -15981690.196 893137.885 -19857154.913 10 0 60313 67500.00000 0 -13942171.009 -638878.605 -21342075.551 10 0 60313 68400.00000 0 -11909612.663 -2428836.340 -22412148.386 10 0 60313 69300.00000 0 -9946504.444 -4444551.973 -23046355.679 10 0 60313 70200.00000 0 -8109352.022 -6642560.809 -23232146.549 10 0 60313 71100.00000 0 -6446438.401 -8969707.203 -22965697.965 10 0 60313 72000.00000 0 -4995943.684 -11365156.477 -22252005.364 10 0 60313 72900.00000 0 -3784503.026 -13762745.816 -21104799.963 10 0 60313 73800.00000 0 -2826263.844 -16093576.829 -19546293.127 10 0 60313 74700.00000 0 -2122482.343 -18288741.590 -17606751.784 10 0 60313 75600.00000 0 -1661676.498 -20282067.804 -15323912.322 10 0 60313 76500.00000 0 -1420328.855 -22012767.336 -12742243.951 10 0 60313 77400.00000 0 -1364108.885 -23427875.931 -9912075.872 10 0 60313 78300.00000 0 -1449562.111 -24484380.560 -6888605.726 10 0 60313 79200.00000 0 -1626193.029 -25150943.953 -3730809.560 10 0 60313 80100.00000 0 -1838851.678 -25409153.031 -500275.910 10 0 60313 81000.00000 0 -2030320.596 -25254238.471 2740011.615 10 0 60313 81900.00000 0 -2143990.287 -24695235.452 5926917.798 10 0 60313 82800.00000 0 -2126507.726 -23754579.729 8998399.262 10 0 60313 83700.00000 0 -1930283.919 -22467157.508 11894722.198 10 0 60313 84600.00000 0 -1515753.045 -20878850.863 14559629.530 10 0 60313 85500.00000 0 -853286.867 -19044641.822 16941434.119 10 0 60314 0.00000 0 75316.559 -17026356.730 18994016.577 10 0 60314 900.00000 0 1275832.949 -14890145.875 20677709.892 10 0 60314 1800.00000 0 2741140.816 -12703807.580 21960052.080 10 0 60314 2700.00000 0 4451300.092 -10534065.332 22816397.462 10 0 60314 3600.00000 0 6374175.169 -8443913.788 23230373.667 10 0 60314 4500.00000 0 8466576.153 -6490142.096 23194178.550 10 0 60314 5400.00000 0 10675870.395 -4721136.052 22708712.845 10 0 60314 6300.00000 0 12941997.344 -3175048.329 21783547.524 10 0 60314 7200.00000 0 15199803.439 -1878410.409 20436727.646 10 0 60314 8100.00000 0 17381600.989 -845241.476 18694417.155 10 0 60314 9000.00000 0 19419846.009 -76688.990 16590391.693 10 0 60314 9900.00000 0 21249825.248 438786.031 14165388.973 10 0 60314 10800.00000 0 22812242.230 724688.330 11466328.561 10 0 60314 11700.00000 0 24055596.223 815263.416 8545415.168 10 0 60314 12600.00000 0 24938256.213 753820.006 5459141.632 10 0 60314 13500.00000 0 25430144.307 590670.259 2267209.583 10 0 60314 14400.00000 0 25513958.675 380773.981 -968612.555 10 0 60314 15300.00000 0 25185884.847 181185.339 -4185673.215 10 0 60314 16200.00000 0 24455765.061 48409.084 -7321641.029 10 0 60314 17100.00000 0 23346717.582 35777.332 -10315705.290 10 0 60314 18000.00000 0 21894220.618 190957.447 -13109750.722 10 0 60314 18900.00000 0 20144697.645 553696.525 -15649484.065 10 0 60314 19800.00000 0 18153661.789 1153898.499 -17885490.669 10 0 60314 20700.00000 0 15983495.353 2010116.313 -19774200.390 10 0 60314 21600.00000 0 13700956.055 3128524.622 -21278743.675 10 0 60314 22500.00000 0 11374513.125 4502418.609 -22369680.671 10 0 60314 23400.00000 0 9071623.926 6112262.563 -23025588.398 10 0 60314 24300.00000 0 6856064.477 7926288.941 -23233493.687 10 0 60314 25200.00000 0 4785425.414 9901625.368 -22989142.402 10 0 60314 26100.00000 0 2908878.312 11985904.677 -22297098.524 10 0 60314 27000.00000 0 1265306.214 14119292.377 -21170669.945 10 0 60314 27900.00000 0 -118122.898 16236847.896 -19631661.267 10 0 60314 28800.00000 0 -1226879.432 18271121.277 -17709957.313 10 0 60314 29700.00000 0 -2059453.380 20154876.416 -15442944.716 10 0 60314 30600.00000 0 -2627177.448 21823826.047 -12874782.328 10 0 60314 31500.00000 0 -2953500.134 23219262.542 -10055534.678 10 0 60314 32400.00000 0 -3072740.405 24290472.718 -7040185.780 10 0 60314 33300.00000 0 -3028378.111 24996833.762 -3887553.397 10 0 60314 34200.00000 0 -2870954.324 25309500.917 -659126.298 10 0 60314 35100.00000 0 -2655672.704 25212615.147 2582151.248 10 0 60314 36000.00000 0 -2439805.846 24703979.665 5773122.257 10 0 60314 36900.00000 0 -2280018.746 23795177.236 8851661.105 10 0 60314 37800.00000 0 -2229724.814 22511124.235 11757893.124 10 0 60314 38700.00000 0 -2336587.960 20889081.611 14435364.815 10 0 60314 39600.00000 0 -2640277.478 18977165.988 16832141.228 10 0 60314 40500.00000 0 -3170571.053 16832425.132 18901809.092 10 0 60314 41400.00000 0 -3945885.852 14518559.909 20604366.748 10 0 60314 42300.00000 0 -4972299.012 12103389.207 21906984.621 10 0 60314 43200.00000 0 -6243097.901 9656164.235 22784623.009 10 0 60314 44100.00000 0 -7738878.090 7244844.011 23220496.958 10 0 60314 45000.00000 0 -9428184.098 4933444.683 23206381.100 10 0 60314 45900.00000 0 -11268665.538 2779571.411 22742750.338 10 0 60314 46800.00000 0 -13208700.204 832233.290 21838755.203 10 0 60314 47700.00000 0 -15189416.639 -869970.236 20512033.541 10 0 60314 48600.00000 0 -17147032.606 -2300218.750 18788362.878 10 0 60314 49500.00000 0 -19015413.149 -3444341.583 16701160.408 10 0 60314 50400.00000 0 -20728743.021 -4301155.937 14290840.038 10 0 60314 51300.00000 0 -22224203.657 -4882260.171 11604038.244 10 0 60314 52200.00000 0 -23444544.557 -5211292.312 8692722.724 10 0 60314 53100.00000 0 -24340443.048 -5322685.570 5613199.929 10 0 60314 54000.00000 0 -24872554.844 -5259973.362 2425039.389 10 0 60314 54900.00000 0 -25013170.216 -5073714.844 -810065.618 10 0 60314 55800.00000 0 -24747406.457 -4819127.735 -4029480.093 10 0 60314 56700.00000 0 -24073886.234 -4553527.514 -7170830.138 10 0 60314 57600.00000 0 -23004872.401 -4333680.359 -10173204.007 10 0 60314 58500.00000 0 -21565852.210 -4213181.111 -12978328.611 10 0 60314 59400.00000 0 -19794586.632 -4239966.864 -15531698.917 10 0 60314 60300.00000 0 -17739662.712 -4454071.517 -17783638.440 10 0 60314 61200.00000 0 -15458607.664 -4885716.923 -19690270.012 10 0 60314 62100.00000 0 -13015641.841 -5553822.548 -21214377.667 10 0 60314 63000.00000 0 -10479162.933 -6464998.331 -22326142.356 10 0 60314 63900.00000 0 -7919065.353 -7613065.376 -23003736.420 10 0 60314 64800.00000 0 -5404005.914 -8979127.123 -23233764.398 10 0 60314 65700.00000 0 -2998729.517 -10532190.508 -23011540.511 10 0 60314 66600.00000 0 -761566.501 -12230313.355 -22341196.261 10 0 60314 67500.00000 0 1257793.612 -14022231.835 -21235614.818 10 0 60314 68400.00000 0 3020158.518 -15849401.191 -19716192.277 10 0 60314 69300.00000 0 4498241.553 -17648364.919 -17812429.374 10 0 60314 70200.00000 0 5677562.820 -19353353.138 -15561360.799 10 0 60314 71100.00000 0 6556805.187 -20899000.590 -13006832.710 10 0 60314 72000.00000 0 7147610.529 -22223069.030 -10198642.515 10 0 60314 72900.00000 0 7473825.640 -23269058.129 -7191558.071 10 0 60314 73800.00000 0 7570230.951 -23988593.503 -4044236.303 10 0 60314 74700.00000 0 7480807.551 -24343489.805 -818063.635 10 0 60314 75600.00000 0 7256617.962 -24307400.762 2424057.540 10 0 60314 76500.00000 0 6953392.742 -23866985.904 5618950.966 10 0 60314 77400.00000 0 6628927.499 -23022544.621 8704411.177 10 0 60314 78300.00000 0 6340402.782 -21788091.262 11620424.930 10 0 60314 79200.00000 0 6141742.129 -20190869.007 14310344.449 10 0 60314 80100.00000 0 6081121.385 -18270324.291 16721988.920 10 0 60314 81000.00000 0 6198735.248 -16076586.261 18808652.740 10 0 60314 81900.00000 0 6524915.404 -13668516.447 20530001.422 10 0 60314 82800.00000 0 7078679.128 -11111411.393 21852838.752 10 0 60314 83700.00000 0 7866768.531 -8474454.856 22751731.834 10 0 60314 84600.00000 0 8883219.727 -5828025.882 23209483.640 10 0 60314 85500.00000 0 10109478.861 -3240974.198 23217445.778 10 0 60315 0.00000 0 11515059.037 -777975.165 22775667.289 10 0 60315 900.00000 0 13058710.844 1502928.997 21892877.835 10 0 60315 1800.00000 0 14690055.422 3552498.642 20586307.489 10 0 60315 2700.00000 0 16351614.680 5332093.620 18881346.571 10 0 60315 3600.00000 0 17981152.826 6815022.328 16811052.836 10 0 60315 4500.00000 0 19514233.256 7987390.572 14415515.185 10 0 60315 5400.00000 0 20886885.308 8848416.784 11741085.580 10 0 60315 6300.00000 0 22038270.871 9410202.146 8839493.037 10 0 60315 7200.00000 0 22913240.704 9696966.339 5766855.693 10 0 60315 8100.00000 0 23464674.582 9743781.527 2582608.788 10 0 60315 9000.00000 0 23655507.958 9594857.779 -651631.968 10 0 60315 9900.00000 0 23460360.395 9301451.654 -3873250.754 10 0 60315 10800.00000 0 22866697.141 8919485.396 -7019833.852 10 0 60315 11700.00000 0 21875474.210 8506976.355 -10030371.218 10 0 60315 12600.00000 0 20501238.515 8121384.444 -12846434.612 10 0 60315 13500.00000 0 18771677.039 7816989.139 -15413309.764 10 0 60315 14400.00000 0 16726631.853 7642406.700 -17681060.689 10 0 60315 15300.00000 0 14416620.039 7638352.770 -19605505.330 10 0 60315 16200.00000 0 11900918.285 7835745.644 -21149083.232 10 0 60315 17100.00000 0 9245290.264 8254231.549 -22281597.855 10 0 60315 18000.00000 0 6519450.068 8901195.837 -22980818.361 10 0 60315 18900.00000 0 3794366.352 9771303.829 -23232928.246 10 0 60315 19800.00000 0 1139518.803 10846592.842 -23032811.053 10 0 60315 20700.00000 0 -1379778.904 12097113.721 -22384166.435 10 0 60315 21600.00000 0 -3704878.008 13482096.881 -21299453.065 10 0 60315 22500.00000 0 -5786010.799 14951595.389 -19799658.333 10 0 60315 23400.00000 0 -7584130.935 16448537.070 -17913898.234 10 0 60315 24300.00000 0 -9072300.545 17911099.718 -15678854.415 10 0 60315 25200.00000 0 -10236565.769 19275309.275 -13138058.826 10 0 60315 26100.00000 0 -11076284.083 20477750.744 -10341039.861 10 0 60315 27000.00000 0 -11603890.194 21458276.364 -7342347.011 10 0 60315 27900.00000 0 -11844111.451 22162595.304 -4200473.866 10 0 60315 28800.00000 0 -11832667.402 22544634.009 -976701.800 10 0 60315 29700.00000 0 -11614510.467 22568566.101 2266111.549 10 0 60315 30600.00000 0 -11241684.417 22210425.052 5464773.644 10 0 60315 31500.00000 0 -10770893.717 21459230.919 8557002.231 10 0 60315 32400.00000 0 -10260888.961 20317583.535 11482648.551 10 0 60315 33300.00000 0 -9769781.078 18801697.604 14184873.554 10 0 60315 34200.00000 0 -9352399.511 16940879.114 16611253.460 10 0 60315 35100.00000 0 -9057806.940 14776466.233 18714793.067 10 0 60315 36000.00000 0 -8927075.787 12360280.335 20454827.575 10 0 60315 36900.00000 0 -8991419.894 9752653.093 21797796.379 10 0 60315 37800.00000 0 -9270759.158 7020112.827 22717875.326 10 0 60315 38700.00000 0 -9772776.218 4232826.778 23197456.879 10 0 60315 39600.00000 0 -10492503.399 1461905.462 23227470.778 10 0 60315 40500.00000 0 -11412455.865 -1223319.869 22807540.785 10 0 60315 41400.00000 0 -12503304.295 -3757935.200 21945976.063 10 0 60315 42300.00000 0 -13725058.216 -6083889.748 20659598.568 10 0 60315 43200.00000 0 -15028710.253 -8152150.868 18973410.581 10 0 60315 44100.00000 0 -16358272.832 -9924481.008 16920109.075 10 0 60315 45000.00000 0 -17653122.879 -11374765.316 14539456.119 10 0 60315 45900.00000 0 -18850557.512 -12489836.983 11877516.906 10 0 60315 46800.00000 0 -19888455.067 -13269767.775 8985779.144 10 0 60315 47700.00000 0 -20707931.298 -13727613.012 5920169.745 10 0 60315 48600.00000 0 -21255880.583 -13888622.505 2739986.527 10 0 60315 49500.00000 0 -21487296.403 -13788950.818 -493235.660 10 0 60315 50400.00000 0 -21367274.073 -13473920.852 -3716903.548 10 0 60315 51300.00000 0 -20872611.487 -12995913.207 -6868567.032 10 0 60315 52200.00000 0 -19992939.930 -12411969.499 -9887121.182 10 0 60315 53100.00000 0 -18731336.155 -11781209.813 -12713985.961 10 0 60315 54000.00000 0 -17104388.267 -11162172.565 -15294241.059 10 0 60315 54900.00000 0 -15141710.467 -10610188.531 -17577693.959 10 0 60315 55800.00000 0 -12884924.605 -10174899.807 -19519860.329 10 0 60315 56700.00000 0 -10386148.746 -9898028.702 -21082837.377 10 0 60315 57600.00000 0 -7706053.580 -9811491.471 -22236052.692 10 0 60315 58500.00000 0 -4911565.812 -9935937.658 -22956873.256 10 0 60315 59400.00000 0 -2073312.702 -10279778.184 -23231061.897 10 0 60315 60300.00000 0 737086.920 -10838744.936 -23053071.268 10 0 60315 61200.00000 0 3449772.907 -11596002.309 -22426168.412 10 0 60315 62100.00000 0 5999320.905 -12522807.796 -21362386.289 10 0 60315 63000.00000 0 8327234.532 -13579695.363 -19882301.985 10 0 60315 63900.00000 0 10384148.141 -14718132.872 -18014644.836 10 0 60315 64800.00000 0 12131647.624 -15882584.266 -15795741.255 10 0 60315 65700.00000 0 13543632.591 -17012889.589 -13268806.550 10 0 60315 66600.00000 0 14607162.634 -18046861.800 -10483097.452 10 0 60315 67500.00000 0 15322752.331 -18922989.620 -7492942.240 10 0 60315 68400.00000 0 15704103.287 -19583130.789 -4356668.188 10 0 60315 69300.00000 0 15777285.740 -19975080.199 -1135448.538 10 0 60315 70200.00000 0 15579405.990 -20054902.709 2107906.926 10 0 60315 71100.00000 0 15156818.098 -19788930.611 5310192.417 10 0 60315 72000.00000 0 14562957.815 -19155340.287 8409051.778 10 0 60315 72900.00000 0 13855892.753 -18145240.968 11344203.399 10 0 60315 73800.00000 0 13095694.602 -16763229.637 14058619.327 10 0 60315 74700.00000 0 12341746.278 -15027389.180 16499634.861 10 0 60315 75600.00000 0 11650098.977 -12968730.718 18619966.879 10 0 60315 76500.00000 0 11070991.213 -10630104.490 20378621.567 10 0 60315 77400.00000 0 10646634.262 -8064625.957 21741674.849 10 0 60315 78300.00000 0 10409356.453 -5333683.657 22682911.848 10 0 60315 79200.00000 0 10380182.995 -2504612.292 23184314.693 10 0 60315 80100.00000 0 10567909.408 351872.203 23236391.096 10 0 60315 81000.00000 0 10968705.657 3164369.714 22838339.132 10 0 60315 81900.00000 0 11566266.040 5863514.448 21998046.646 10 0 60315 82800.00000 0 12332497.240 8384603.893 20731926.535 10 0 60315 83700.00000 0 13228714.940 10670031.362 19064591.881 10 0 60315 84600.00000 0 14207298.598 12671423.630 17028377.532 10 0 60315 85500.00000 0 15213735.329 14351397.308 14662717.229 99